Content
SEND FEEDBACK

Daily
Averages
Monthly
Summary
United States of America

CEDAR, MINNESOTA


Home > North America > United States > Minnesota
Elevation: 902 feet     Latitude: 45 19N     Longitude: 093 16W

WEATHER
 
SELECT A DAY
Number of Records: 209,754;   Date Range: 8/1/96 - 8/28/14
 
SHARE

PRINT THIS DATA

[ ← Previous Day ]
WEATHER ALMANAC - JANUARY 23, 2013
[ Next Day → ]
[ °C ]   °F
Weather ElementAverageHighLow
Temperature6.4 °F15.8 °F (11:45 am)-5.8 °F (11:54 pm)
Dewpoint-2.6 °F8.6 °F (9:45 am)-16.6 °F (10:14 pm)
Humidity67.6 %85 % (5:14 am)47 % (7:45 pm)
Barometer30.27 in30.59 in (11:54 pm)30.13 in (5:14 am)
Wind Speed7.4 mph24.2 mph (3:45 pm)
Wind Gust32.2 mph (2:45 pm)
Weather ElementAverage
Visibility8.3 mi
Wind DirectionSSE (159.5 °)

Weather ElementTotal
Precipitation---
Heating Degree Days60 (Base 65)
Averaged from 43 records on January 23, 2013
WEATHER CONDITIONS BREAKOUT
WIND DIRECTION BREAKOUT
WEATHER BY HOUR - JANUARY 23, 2013
[ °C ]   °F
Local TimeTemperatureDewpointHumidityBarometerVisibilityWind DirectionWind SpeedGust SpeedPrecipitationEventsConditions
12:34 AM6.8 °F-2.2 °F67 %30.21 in10.0 miSSW (210°)4.6 mphOvercast
12:54 AM6.8 °F-2.2 °F67 %30.21 in10.0 miCalmOvercast
1:14 AM6.8 °F-2.2 °F67 %30.21 in10.0 miCalmOvercast
1:34 AM6.8 °F-2.2 °F67 %30.19 in10.0 miCalmOvercast
1:54 AM6.8 °F-2.2 °F67 %30.19 in10.0 miCalmOvercast
2:14 AM6.8 °F-0.4 °F72 %30.19 in10.0 miCalmOvercast
2:34 AM6.8 °F-0.4 °F72 %30.19 in10.0 miCalmOvercast
2:54 AM8.6 °F-0.4 °F67 %30.18 in10.0 miSouth (170°)3.5 mphOvercast
3:14 AM8.6 °F1.4 °F73 %30.17 in10.0 miSouth (180°)3.5 mphOvercast
3:34 AM8.6 °F1.4 °F73 %30.16 in10.0 miSouth (190°)3.5 mphOvercast
3:54 AM8.6 °F1.4 °F73 %30.16 in5.0 miCalmSnowLight Snow
4:14 AM8.6 °F3.2 °F79 %30.16 in5.0 miCalmSnowLight Snow
4:34 AM8.6 °F3.2 °F79 %30.15 in4.0 miCalmOvercast
4:54 AM8.6 °F3.2 °F79 %30.14 in4.0 miCalmOvercast
5:14 AM8.6 °F5.0 °F85 %30.13 in5.0 miCalmSnowLight Snow
5:34 AM8.6 °F5.0 °F85 %30.13 in5.0 miCalmOvercast
5:54 AM8.6 °F5.0 °F85 %30.13 in5.0 miCalmSnowLight Snow
6:14 AM10.4 °F6.8 °F85 %30.13 in5.0 miCalmSnowLight Snow
6:34 AM10.4 °F6.8 °F85 %30.13 in5.0 miCalmSnowLight Snow
6:50 AM10.4 °F6.8 °F85 %30.13 in5.0 miCalmSnowLight Snow
6:54 AM10.4 °F6.8 °F85 %30.13 in3.0 miCalmSnowLight Snow
8:00 AM10.4 °F6.8 °F85 %30.14 in4.0 miWest (260°)3.5 mphSnowLight Snow
8:45 AM10.4 °F6.8 °F85 %30.14 in7.0 miWest (270°)5.8 mphSnowLight Snow
9:45 AM12.2 °F8.6 °F85 %30.15 in7.0 miWest (260°)6.9 mphMostly Cloudy
10:45 AM14.0 °F8.6 °F79 %30.16 in10.0 miWNW (290°)16.1 mphScattered Clouds
11:45 AM15.8 °F6.8 °F68 %30.14 in10.0 miWest (280°)16.1 mph19.6 mphMostly Cloudy
12:45 PM15.8 °F5.0 °F62 %30.15 in10.0 miWest (280°)20.7 mph27.6 mphMostly Cloudy
1:50 PM12.2 °F-0.4 °F57 %30.17 in10.0 miNW (310°)23.0 mph28.8 mphMostly Cloudy
2:45 PM12.2 °F-2.2 °F53 %30.22 in10.0 miNW (310°)23.0 mph32.2 mphScattered Clouds
3:45 PM10.4 °F-5.8 °F48 %30.27 in10.0 miNW (320°)24.2 mph32.2 mphScattered Clouds
4:45 PM6.8 °F-9.4 °F48 %30.33 in10.0 miNW (320°)20.7 mph26.5 mphScattered Clouds
5:50 PM3.2 °F-11.2 °F51 %30.40 in10.0 miNorth (350°)16.1 mph21.9 mphScattered Clouds
6:45 PM1.4 °F-11.2 °F56 %30.44 in10.0 miNorth (350°)16.1 mphClear
7:45 PM1.4 °F-14.8 °F47 %30.47 in10.0 miNNW (340°)12.7 mph19.6 mphClear
8:45 PM-0.4 °F-14.8 °F51 %30.51 in10.0 miNorth (350°)11.5 mphClear
9:14 PM-2.2 °F-14.8 °F55 %30.52 in10.0 miNorth (360°)11.5 mphClear
9:33 PM-2.2 °F-14.8 °F55 %30.53 in10.0 miNorth (10°)11.5 mphClear
9:54 PM-2.2 °F-14.8 °F55 %30.54 in10.0 miNorth (10°)8.1 mphClear
10:14 PM-2.2 °F-16.6 °F50 %30.55 in10.0 miNorth (10°)11.5 mphClear
10:34 PM-2.2 °F-16.6 °F50 %30.56 in10.0 miNorth (360°)11.5 mphClear
10:54 PM-4.0 °F-16.6 °F55 %30.57 in10.0 miNorth (350°)11.5 mphClear
11:14 PM-4.0 °F-16.6 °F55 %30.58 in10.0 miNorth (360°)10.4 mphClear
11:54 PM-5.8 °F-16.6 °F60 %30.59 in10.0 miNorth (360°)10.4 mphClear
Hourly data recorded from KANE, located miles away from Cedar, Minnesota







STORIES FROM OUR PARTNERS